GW4795 Weather Reports


time (UTC)temp
F
wind
direction
speed
knots
gust
knots
rain 1hr
in
rain 24hr
in
rain mn
in
humidity
%
barometer
mb
20260506180019 56 181 0.9 3.5 0.00 0.00 0.00 85 1020.9
20260506175511 56 91 0.9 3.5 0.00 0.00 0.00 86 1020.8
20260506175008 56 138 0.9 5.2 0.00 0.00 0.00 87 1020.6
20260506174528 56 150 0.9 5.2 0.00 0.00 0.00 87 1020.4
20260506174014 55 148 0.9 3.5 0.00 0.00 0.00 87 1020.3
20260506173512 55 165 0.9 4.3 0.00 0.00 0.00 86 1020.4
20260506173048 55 140 1.7 4.3 0.00 0.00 0.00 86 1020.5
20260506172510 55 147 1.7 6.1 0.00 0.00 0.00 86 1020.6
20260506172009 55 184 1.7 7.0 0.00 0.00 0.00 85 1020.7
20260506171516 55 171 3.5 7.0 0.00 0.00 0.00 85 1020.8
20260506171003 56 171 3.5 6.1 0.00 0.00 0.00 85 1020.8
20260506170503 56 149 0.9 3.5 0.00 0.00 0.00 86 1020.5
20260506170004 56 126 0.0 3.5 0.00 0.00 0.00 86 1020.5
20260506165506 56 140 0.9 1.7 0.00 0.00 0.00 86 1020.6
20260506165003 56 200 0.0 2.6 0.00 0.00 0.00 86 1020.5
20260506164505 56 172 0.9 2.6 0.00 0.00 0.00 86 1020.5
20260506164002 56 178 0.9 1.7 0.00 0.00 0.00 86 1020.6
20260506163502 56 148 0.0 2.6 0.00 0.00 0.00 86 1020.5
20260506163014 55 99 0.0 2.6 0.00 0.00 0.00 87 1020.4
20260506162503 55 142 0.0 1.7 0.00 0.00 0.00 88 1020.3
20260506162005 55 98 0.0 1.7 0.00 0.00 0.00 89 1020.4
20260506161510 55 61 0.9 2.6 0.00 0.00 0.00 88 1020.2
20260506161006 55 109 0.9 2.6 0.00 0.00 0.00 88 1020.2
20260506160504 55 105 0.9 2.6 0.00 0.00 0.00 88 1020.2
20260506160011 55 71 0.9 2.6 0.00 0.00 0.00 89 1020.0
20260506155504 55 113 0.0 5.2 0.00 0.00 0.00 89 1020.0
20260506155004 55 76 0.9 5.2 0.00 0.00 0.00 90 1019.8
20260506154503 54 99 0.9 3.5 0.00 0.00 0.00 90 1019.7
20260506154003 54 120 0.9 3.5 0.00 0.00 0.00 90 1019.8
20260506153503 54 150 0.9 3.5 0.00 0.00 0.00 91 1019.8
20260506153006 54 50 0.0 3.5 0.00 0.00 0.00 91 1019.9
20260506152504 54 90 0.9 2.6 0.00 0.00 0.00 91 1019.9
20260506152004 54 106 0.9 2.6 0.00 0.00 0.00 91 1020.1
20260506151509 54 104 0.0 1.7 0.00 0.00 0.00 91 1020.2
20260506151005 54 108 0.0 1.7 0.00 0.00 0.00 91 1020.2
20260506150502 54 108 0.0 1.7 0.00 0.00 0.00 91 1020.2
20260506150015 54 86 0.0 1.7 0.00 0.00 0.00 91 1020.0
20260506145504 54 103 0.0 1.7 0.00 0.00 0.00 92 1019.9
20260506145005 53 104 0.9 2.6 0.00 0.00 0.00 91 1019.8
20260506144514 53 63 0.9 2.6 0.00 0.00 0.00 91 1019.8
20260506144005 53 95 0.9 2.6 0.00 0.00 0.00 91 1019.9
20260506143504 53 92 1.7 3.5 0.00 0.00 0.00 91 1019.9
20260506143004 53 86 0.9 3.5 0.00 0.00 0.00 91 1019.9
20260506142503 53 96 0.0 2.6 0.00 0.00 0.00 91 1019.9
20260506142005 53 86 0.9 2.6 0.00 0.00 0.00 91 1019.9
20260506141508 53 90 0.9 2.6 0.00 0.00 0.00 91 1019.8
20260506141003 53 101 0.0 1.7 0.00 0.00 0.00 91 1019.8
20260506140505 53 81 0.0 1.7 0.00 0.00 0.00 90 1019.7
20260506140018 53 106 0.0 1.7 0.00 0.00 0.00 90 1019.8
20260506135506 53 86 0.9 1.7 0.00 0.00 0.00 90 1019.8
20260506135003 53 92 0.0 1.7 0.00 0.00 0.00 90 1019.8
20260506134514 53 111 0.0 1.7 0.00 0.00 0.00 90 1019.8
20260506134008 53 86 0.0 1.7 0.00 0.00 0.00 90 1019.8
20260506133510 53 86 0.0 1.7 0.00 0.00 0.00 90 1019.8
20260506133015 53 86 0.0 1.7 0.00 0.00 0.00 90 1019.6
20260506132507 53 86 0.0 0.9 0.00 0.00 0.00 90 1019.6
20260506132003 53 86 0.0 1.7 0.00 0.00 0.00 90 1019.6
20260506131508 53 86 0.0 1.7 0.00 0.00 0.00 90 1019.7
20260506131005 53 86 0.0 1.7 0.00 0.00 0.00 90 1019.6
20260506130503 53 86 0.0 1.7 0.00 0.00 0.00 90 1019.5
20260506130009 53 66 0.0 1.7 0.00 0.00 0.00 90 1019.3
20260506125502 53 66 0.0 1.7 0.00 0.00 0.00 90 1019.3
20260506125006 53 66 0.0 1.7 0.00 0.00 0.00 91 1019.2
20260506124517 53 66 0.0 1.7 0.00 0.00 0.00 91 1019.3
20260506124007 53 56 0.0 1.7 0.00 0.00 0.00 91 1019.3
20260506123504 53 56 0.0 1.7 0.00 0.00 0.00 91 1019.4
20260506123016 53 56 0.0 1.7 0.00 0.00 0.00 91 1019.2
20260506122507 53 78 0.0 0.9 0.00 0.00 0.00 91 1019.3
20260506122006 53 103 0.0 0.0 0.00 0.00 0.00 91 1019.2
20260506121517 53 103 0.0 0.0 0.00 0.00 0.00 91 1019.2
20260506121007 53 103 0.0 0.0 0.00 0.00 0.00 91 1019.2
20260506120503 52 103 0.0 0.0 0.00 0.00 0.00 91 1019.2
20260506120008 52 103 0.0 0.0 0.00 0.00 0.00 91 1019.1
20260506115504 52 103 0.0 0.0 0.00 0.00 0.00 91 1019.0
20260506115006 52 103 0.0 0.0 0.00 0.00 0.00 92 1019.1
20260506114510 52 103 0.0 0.0 0.00 0.00 0.00 92 1019.1
20260506114007 52 103 0.0 1.7 0.00 0.00 0.00 92 1019.1
20260506113507 52 103 0.0 1.7 0.00 0.00 0.00 92 1018.9
20260506113018 52 103 0.0 1.7 0.00 0.00 0.00 92 1018.8
20260506112509 52 103 0.0 1.7 0.00 0.00 0.00 92 1018.8
20260506112009 52 103 0.0 1.7 0.00 0.00 0.00 92 1018.7
20260506111519 52 103 0.0 1.7 0.00 0.00 0.00 92 1018.6
20260506111007 52 103 0.0 0.0 0.00 0.00 0.00 92 1018.6
20260506110506 52 103 0.0 1.7 0.00 0.00 0.00 92 1018.6
20260506110020 52 103 0.0 1.7 0.00 0.00 0.00 92 1018.5
20260506105508 52 93 0.9 1.7 0.00 0.00 0.00 92 1018.5
20260506105004 52 84 0.0 1.7 0.00 0.00 0.00 92 1018.5
20260506104527 52 94 0.0 1.7 0.00 0.00 0.00 92 1018.4
20260506104003 52 96 0.0 1.7 0.00 0.00 0.00 92 1018.4
20260506103503 52 115 0.0 1.7 0.00 0.00 0.00 92 1018.3
20260506103016 52 115 0.0 1.7 0.00 0.00 0.00 92 1018.3
20260506102508 52 100 0.0 1.7 0.00 0.00 0.00 91 1018.3
20260506102007 52 98 0.0 0.0 0.00 0.00 0.00 91 1018.3
20260506101520 52 111 0.0 0.0 0.00 0.00 0.00 91 1018.2
20260506101008 52 124 0.0 0.0 0.00 0.00 0.00 91 1018.2
20260506100508 52 124 0.0 0.0 0.00 0.00 0.00 91 1018.2
20260506100020 52 124 0.0 0.0 0.00 0.00 0.00 91 1018.2
20260506095509 52 124 0.0 0.0 0.00 0.00 0.00 91 1018.2
20260506095009 52 124 0.0 0.0 0.00 0.00 0.00 91 1018.1
20260506094522 52 124 0.0 0.0 0.00 0.00 0.00 91 1018.1
20260506094004 52 124 0.0 0.0 0.00 0.00 0.00 91 1018.0
20260506093502 52 124 0.0 0.0 0.00 0.00 0.00 91 1018.0
20260506093014 52 124 0.0 0.0 0.00 0.00 0.00 90 1018.0
20260506092505 52 124 0.0 0.0 0.00 0.00 0.00 89 1018.0
20260506092006 52 124 0.0 0.0 0.00 0.00 0.00 89 1018.0
20260506091519 52 124 0.0 0.0 0.00 0.00 0.00 89 1018.0
20260506091010 52 124 0.0 0.0 0.00 0.00 0.00 89 1017.9
20260506090513 52 124 0.0 0.0 0.00 0.00 0.00 89 1017.9
20260506090020 52 124 0.0 0.0 0.00 0.00 0.00 89 1017.9
20260506085511 52 124 0.0 0.0 0.00 0.00 0.00 89 1017.8
20260506085006 52 124 0.0 0.0 0.00 0.00 0.00 89 1017.8
20260506084522 52 124 0.0 0.0 0.00 0.00 0.00 89 1017.7
20260506084009 53 124 0.0 0.0 0.00 0.00 0.00 89 1017.7
20260506083506 53 124 0.0 0.0 0.00 0.00 0.00 89 1017.8
20260506083035 53 124 0.0 0.0 0.00 0.00 0.00 89 1017.7
20260506082505 53 124 0.0 1.7 0.00 0.00 0.00 89 1017.6
20260506082006 53 124 0.0 1.7 0.00 0.00 0.00 89 1017.6
20260506081515 53 84 0.0 1.7 0.00 0.00 0.00 89 1017.6
20260506081002 53 84 0.0 1.7 0.00 0.00 0.00 89 1017.5
20260506080502 53 84 0.0 1.7 0.00 0.00 0.00 89 1017.5
20260506073505 54 79 0.0 1.7 0.00 0.00 0.00 88 1017.4
20260506073008 54 86 0.0 1.7 0.00 0.00 0.00 88 1017.4
20260506072505 54 83 0.0 1.7 0.00 0.00 0.00 88 1017.4
20260506072005 54 88 0.0 1.7 0.00 0.00 0.00 88 1017.3
20260506071516 54 94 0.0 1.7 0.00 0.00 0.00 87 1017.3
20260506071006 54 67 0.0 1.7 0.00 0.00 0.00 87 1017.3
20260506070507 55 67 0.0 0.9 0.00 0.00 0.00 87 1017.3
20260506062505 55 327 0.0 1.7 0.00 0.00 0.00 84 1017.1
20260506062006 55 336 0.0 1.7 0.00 0.00 0.00 84 1017.0
20260506061510 56 80 0.0 1.7 0.00 0.00 0.00 84 1017.0
20260506061007 56 80 0.0 1.7 0.00 0.00 0.00 84 1016.8
20260506060509 56 80 0.0 1.7 0.00 0.00 0.00 83 1016.8
20260506051004 58 80 0.0 0.0 0.00 0.00 0.00 79 1016.2
20260506050504 59 80 0.0 0.0 0.00 0.00 0.00 79 1016.1
20260506045006 59 80 0.0 0.0 0.00 0.00 0.00 78 1016.1
20260506044522 59 80 0.0 0.0 0.00 0.00 0.00 78 1016.1
20260506044006 59 80 0.0 0.0 0.00 0.00 0.00 78 1016.1
20260506043511 60 80 0.0 1.7 0.00 0.00 0.00 77 1016.0
20260506043010 60 80 0.0 1.7 0.00 0.00 0.00 77 1015.9
20260506042504 60 80 0.0 1.7 0.00 0.00 0.00 77 1015.9
20260506042004 60 74 0.0 1.7 0.00 0.00 0.00 76 1015.8
20260506041509 61 89 0.0 0.9 0.00 0.00 0.00 76 1015.8
20260506041004 61 89 0.0 0.0 0.00 0.00 0.00 75 1015.9
20260506040504 61 89 0.0 0.0 0.00 0.00 0.00 75 1015.8
20260506040023 61 89 0.0 0.0 0.00 0.00 0.00 74 1015.7
20260506035505 62 89 0.0 0.0 0.00 0.00 0.00 74 1015.7
20260506035005 62 89 0.0 0.0 0.00 0.00 0.00 73 1015.7
20260506034529 62 89 0.0 0.0 0.00 0.00 0.00 73 1015.7
20260506034006 62 89 0.0 0.0 0.00 0.00 0.00 73 1015.7
20260506033508 63 89 0.0 0.0 0.00 0.00 0.00 72 1015.7
20260506033026 63 89 0.0 0.0 0.00 0.00 0.00 72 1015.6
20260506032510 63 89 0.0 1.7 0.00 0.00 0.00 72 1015.6
20260506032011 63 89 0.0 1.7 0.00 0.00 0.00 71 1015.5
20260506031508 63 87 0.0 1.7 0.00 0.00 0.00 71 1015.5
20260506031004 64 91 0.0 1.7 0.00 0.00 0.00 70 1015.5
20260506030503 64 86 0.0 1.7 0.00 0.00 0.00 70 1015.3
20260506030010 64 79 0.0 1.7 0.00 0.00 0.00 70 1015.4
20260506025509 64 105 0.0 1.7 0.00 0.00 0.00 69 1015.4
20260506025006 64 37 0.0 2.6 0.00 0.00 0.00 69 1015.4
20260506024526 64 76 0.9 2.6 0.00 0.00 0.00 69 1015.4
20260506024010 64 99 0.0 2.6 0.00 0.00 0.00 68 1015.4
20260506023509 64 102 0.0 2.6 0.00 0.00 0.00 68 1015.3
20260506023020 64 52 0.0 2.6 0.00 0.00 0.00 68 1015.3
20260506022507 64 88 0.9 2.6 0.00 0.00 0.00 68 1015.3
20260506022008 64 34 0.9 2.6 0.00 0.00 0.00 68 1015.3
20260506021540 64 82 0.9 1.7 0.00 0.00 0.00 68 1015.3
20260506021007 65 88 0.0 1.7 0.00 0.00 0.00 68 1015.3
20260506020504 64 44 0.9 5.2 0.00 0.00 0.00 68 1015.3
20260506020010 65 94 0.9 5.2 0.00 0.00 0.00 67 1015.3
20260506015505 65 94 0.9 3.5 0.00 0.00 0.00 68 1015.2
20260506015005 65 49 0.0 4.3 0.00 0.00 0.00 68 1015.3
20260506014522 65 74 0.9 4.3 0.00 0.00 0.00 68 1015.3
20260506014004 65 150 0.9 6.1 0.00 0.00 0.00 67 1015.2
20260506013506 65 27 1.7 6.1 0.00 0.00 0.00 67 1015.3
20260506013021 65 142 0.9 3.5 0.00 0.00 0.00 67 1015.3
20260506012507 65 153 1.7 3.5 0.00 0.00 0.00 67 1015.3
20260506012007 65 162 0.9 3.5 0.00 0.00 0.00 68 1015.3
20260506011526 65 69 1.7 3.5 0.00 0.00 0.00 68 1015.3
20260506011007 65 77 0.0 2.6 0.00 0.00 0.00 68 1015.3
20260506010508 65 101 0.9 2.6 0.00 0.00 0.00 67 1015.4
20260506010032 65 96 0.9 3.5 0.00 0.00 0.00 68 1015.5
20260506005509 65 35 0.9 3.5 0.00 0.00 0.00 68 1015.5
20260506005006 65 95 1.7 3.5 0.00 0.00 0.00 68 1015.5
20260506004512 65 175 0.0 6.1 0.00 0.00 0.00 67 1015.5
20260506004003 65 129 1.7 6.1 0.00 0.00 0.00 68 1015.5
20260506003507 65 136 1.7 4.3 0.00 0.00 0.00 67 1015.5
20260506003020 65 84 0.9 5.2 0.00 0.00 0.00 67 1015.5
20260506002508 65 9 1.7 5.2 0.00 0.00 0.00 67 1015.6
20260506002009 65 114 1.7 3.5 0.00 0.00 0.00 67 1015.6
20260506001522 65 92 0.9 5.2 0.00 0.00 0.00 67 1015.7
20260506001009 65 91 0.9 5.2 0.00 0.00 0.00 67 1015.8
20260506000510 65 102 0.9 5.2 0.00 0.00 0.00 68 1015.8
20260506000024 65 58 0.9 5.2 0.00 0.00 0.00 67 1015.9
20260505235508 65 90 1.7 4.3 0.00 0.00 0.00 67 1016.0
20260505235012 65 292 1.7 4.3 0.00 0.00 0.00 67 1016.0
20260505234539 65 113 0.9 3.5 0.00 0.00 0.00 68 1016.1
20260505234002 65 126 0.9 5.2 0.00 0.00 0.00 68 1016.1
20260505233509 64 21 1.7 5.2 0.00 0.00 0.00 68 1016.1
20260505233016 64 140 1.7 6.1 0.00 0.00 0.00 70 1016.1
20260505232507 64 151 0.9 6.1 0.00 0.00 0.00 70 1016.2
20260505232006 63 88 1.7 5.2 0.00 0.00 0.00 70 1016.2
20260505231526 63 79 1.7 5.2 0.00 0.00 0.00 69 1016.3
20260505231004 63 87 1.7 5.2 0.00 0.00 0.00 69 1016.3
20260505230503 63 148 0.9 1.7 0.00 0.00 0.00 71 1016.4
20260505230007 63 42 0.9 5.2 0.00 0.00 0.00 71 1016.4
20260505225503 63 166 0.0 5.2 0.00 0.00 0.00 71 1016.4
20260505225003 63 84 1.7 5.2 0.00 0.00 0.00 71 1016.4
20260505224517 63 121 0.0 1.7 0.00 0.00 0.00 73 1016.4
20260505224003 62 142 0.9 2.6 0.00 0.00 0.00 71 1016.5
20260505223505 62 140 0.9 3.5 0.00 0.00 0.00 73 1016.6
20260505223017 62 69 0.9 4.3 0.00 0.00 0.00 73 1016.6
20260505222505 62 148 1.7 4.3 0.00 0.00 0.00 73 1016.6
20260505222008 62 205 1.7 5.2 0.00 0.00 0.00 73 1016.6
20260505221520 61 167 2.6 5.2 0.00 0.00 0.00 73 1016.7
20260505221002 61 116 1.7 3.5 0.00 0.00 0.00 73 1016.7
20260505220503 61 137 0.9 4.3 0.00 0.00 0.00 74 1016.8
20260505220003 61 71 0.9 4.3 0.00 0.00 0.00 73 1016.8
20260505215505 61 200 1.7 5.2 0.00 0.00 0.00 74 1016.8
20260505215003 61 119 1.7 5.2 0.00 0.00 0.00 74 1016.8
20260505214507 61 94 1.7 4.3 0.00 0.00 0.00 73 1016.8
20260505214003 61 51 0.9 5.2 0.00 0.00 0.00 73 1016.8
20260505213505 61 119 0.9 5.2 0.00 0.00 0.00 74 1016.9
20260505213011 61 139 1.7 4.3 0.00 0.00 0.00 74 1016.8
20260505212510 61 172 1.7 4.3 0.00 0.00 0.00 74 1016.9
20260505212006 61 147 0.9 6.1 0.00 0.00 0.00 74 1016.9
20260505211533 61 139 0.9 6.1 0.00 0.00 0.00 74 1016.9
20260505211007 61 188 2.6 5.2 0.00 0.00 0.00 74 1017.0
20260505210509 61 105 0.9 5.2 0.00 0.00 0.00 75 1017.0
20260505210024 60 167 1.7 4.3 0.00 0.00 0.00 75 1017.0
20260505205502 60 147 0.9 2.6 0.00 0.00 0.00 75 1017.0
20260505205004 60 132 0.9 2.6 0.00 0.00 0.00 74 1017.0
20260505204508 60 145 0.9 5.2 0.00 0.00 0.00 74 1017.0
20260505204003 60 175 3.5 5.2 0.00 0.00 0.00 75 1017.0
20260505203503 60 68 0.9 4.3 0.00 0.00 0.00 75 1017.0
20260505203012 60 180 1.7 4.3 0.00 0.00 0.00 76 1017.0
20260505202503 60 129 1.7 2.6 0.00 0.00 0.00 75 1017.0
20260505202005 60 139 0.0 3.5 0.00 0.00 0.00 76 1017.0
20260505201516 60 196 0.9 3.5 0.00 0.00 0.00 76 1017.0
20260505201008 60 165 2.6 3.5 0.00 0.00 0.00 76 1017.0
20260505200508 60 136 0.9 3.5 0.00 0.00 0.00 75 1017.0
20260505200019 60 123 1.7 4.3 0.00 0.00 0.00 76 1017.1
20260505195506 60 133 0.9 4.3 0.00 0.00 0.00 76 1017.0
20260505195005 60 182 0.9 4.3 0.00 0.00 0.00 77 1017.0
20260505194506 60 142 0.9 4.3 0.00 0.00 0.00 76 1017.0
20260505194002 60 147 1.7 4.3 0.00 0.00 0.00 76 1017.0
20260505193503 60 34 0.9 4.3 0.00 0.00 0.00 76 1017.0
20260505193010 60 98 0.0 5.2 0.00 0.00 0.00 77 1017.0
20260505192503 59 169 1.7 5.2 0.00 0.00 0.00 77 1017.0
20260505192006 59 184 0.9 5.2 0.00 0.00 0.00 77 1016.9
20260505191514 59 167 0.9 5.2 0.00 0.00 0.00 77 1016.9
20260505191008 59 140 0.9 3.5 0.00 0.00 0.00 78 1016.9
20260505190507 59 157 0.9 3.5 0.00 0.00 0.00 77 1016.9
20260505190020 59 145 1.7 3.5 0.00 0.00 0.00 77 1016.9
20260505185507 59 148 0.9 3.5 0.00 0.00 0.00 78 1016.8
20260505185008 59 147 0.9 3.5 0.00 0.00 0.00 78 1016.8
20260505184527 59 136 1.7 3.5 0.00 0.00 0.00 78 1016.8
20260505184012 59 179 0.9 3.5 0.00 0.00 0.00 79 1016.8
20260505183509 59 77 0.9 3.5 0.00 0.00 0.00 79 1016.8
20260505183007 59 153 1.7 6.1 0.00 0.00 0.00 79 1016.8
20260505182503 59 153 0.9 6.1 0.00 0.00 0.00 78 1016.8
20260505182003 59 152 3.5 6.1 0.00 0.00 0.00 78 1016.7
20260505181512 59 206 1.7 4.3 0.00 0.00 0.00 79 1016.7
20260505181007 59 188 1.7 4.3 0.00 0.00 0.00 79 1016.7
20260505180504 58 161 0.9 4.3 0.00 0.00 0.00 79 1016.7